Precipitable_Water
1.53 1.55 1.50 1.48 1.50 1.55 1.57 1.58 1.56 1.49 1.47 1.50 1.44 1.45 1.48 1.57 1.64 1.62 1.64 1.67 1.70 1.67 1.67 1.70 1.72 1.70 1.72 1.70 1.69 1.64 1.58 1.52 1.52 1.53 1.51 1.53 1.49 1.50 1.48 1.45 1.44 1.43
1.47 1.55 1.56 1.53 1.50 1.54 1.58 1.60 1.59 1.54 1.51 1.49 1.50 1.52 1.54 1.58 1.61 1.64 1.63 1.63 1.68 1.72 1.73 1.67 1.68 1.71 1.70 1.71 1.70 1.59 1.50 1.46 1.41 1.51 1.45 1.44 1.46 1.47 1.47 1.47 1.44 1.47
1.38 1.47 1.52 1.48 1.46 1.48 1.52 1.58 1.58 1.56 1.56 1.56 1.55 1.57 1.56 1.58 1.59 1.62 1.65 1.67 1.67 1.71 1.73 1.70 1.67 1.67 1.69 1.72 1.73 1.70 1.59 1.49 1.41 1.46 1.43 1.40 1.44 1.42 1.44 1.47 1.46 1.47
1.28 1.38 1.45 1.47 1.49 1.48 1.51 1.52 1.53 1.53 1.55 1.55 1.55 1.59 1.59 1.60 1.59 1.61 1.61 1.61 1.60 1.62 1.67 1.67 1.65 1.65 1.65 1.67 1.68 1.67 1.69 1.65 1.59 1.52 1.40 1.41 1.43 1.42 1.41 1.43 1.45 1.47
1.19 1.26 1.35 1.42 1.45 1.47 1.48 1.47 1.47 1.48 1.47 1.51 1.56 1.59 1.59 1.61 1.61 1.61 1.64 1.64 1.59 1.56 1.57 1.57 1.58 1.58 1.58 1.57 1.58 1.54 1.57 1.59 1.63 1.59 1.49 1.42 1.47 1.45 1.43 1.40 1.36 1.36
1.17 1.19 1.27 1.31 1.35 1.36 1.37 1.41 1.46 1.49 1.48 1.48 1.52 1.57 1.56 1.57 1.57 1.58 1.61 1.61 1.63 1.60 1.53 1.50 1.48 1.48 1.46 1.45 1.45 1.44 1.46 1.44 1.48 1.50 1.47 1.47 1.52 1.57 1.52 1.46 1.39 1.34
1.09 1.12 1.16 1.23 1.27 1.30 1.30 1.35 1.44 1.51 1.53 1.54 1.57 1.53 1.57 1.54 1.51 1.53 1.55 1.56 1.56 1.56 1.52 1.45 1.41 1.39 1.40 1.38 1.34 1.32 1.36 1.38 1.40 1.39 1.35 1.39 1.47 1.52 1.57 1.53 1.47 1.41
1.11 1.12 1.14 1.19 1.19 1.24 1.26 1.30 1.36 1.43 1.52 1.58 1.54 1.56 1.59 1.56 1.55 1.55 1.55 1.54 1.51 1.48 1.46 1.43 1.39 1.36 1.37 1.36 1.30 1.25 1.24 1.30 1.31 1.33 1.32 1.33 1.38 1.36 1.42 1.47 1.47 1.40
1.18 1.14 1.12 1.13 1.14 1.17 1.20 1.24 1.29 1.35 1.45 1.47 1.52 1.56 1.61 1.59 1.57 1.56 1.54 1.54 1.50 1.46 1.43 1.38 1.34 1.31 1.31 1.30 1.28 1.24 1.21 1.23 1.26 1.27 1.28 1.30 1.32 1.33 1.35 1.40 1.38 1.36
1.22 1.24 1.21 1.15 1.11 1.13 1.13 1.18 1.24 1.28 1.34 1.37 1.43 1.50 1.52 1.56 1.58 1.56 1.53 1.50 1.46 1.43 1.39 1.34 1.30 1.28 1.27 1.25 1.23 1.23 1.20 1.18 1.20 1.22 1.23 1.23 1.24 1.29 1.35 1.38 1.35 1.31
1.24 1.24 1.23 1.21 1.15 1.13 1.11 1.13 1.17 1.21 1.26 1.28 1.32 1.35 1.42 1.48 1.52 1.56 1.51 1.47 1.40 1.36 1.32 1.29 1.27 1.26 1.23 1.22 1.21 1.22 1.20 1.19 1.17 1.16 1.16 1.17 1.19 1.21 1.25 1.27 1.30 1.29
1.48 1.29 1.19 1.18 1.20 1.19 1.17 1.17 1.18 1.19 1.21 1.25 1.28 1.26 1.31 1.38 1.41 1.45 1.45 1.40 1.38 1.35 1.31 1.29 1.28 1.26 1.23 1.20 1.18 1.17 1.16 1.17 1.19 1.19 1.17 1.15 1.14 1.14 1.16 1.18 1.16 1.18
1.81 1.60 1.42 1.30 1.25 1.26 1.28 1.27 1.24 1.23 1.22 1.21 1.25 1.27 1.28 1.29 1.32 1.33 1.37 1.36 1.34 1.34 1.30 1.28 1.27 1.27 1.24 1.21 1.18 1.15 1.11 1.08 1.09 1.11 1.12 1.12 1.11 1.11 1.12 1.14 1.13 1.11
1.96 1.88 1.81 1.73 1.62 1.49 1.37 1.31 1.31 1.30 1.26 1.24 1.25 1.26 1.28 1.28 1.26 1.26 1.29 1.31 1.31 1.30 1.30 1.30 1.28 1.27 1.24 1.22 1.19 1.17 1.13 1.08 1.07 1.05 1.05 1.06 1.07 1.09 1.10 1.10 1.10 1.09
2.04 2.00 2.01 2.00 1.93 1.80 1.65 1.50 1.35 1.33 1.36 1.33 1.28 1.26 1.28 1.29 1.29 1.27 1.24 1.24 1.26 1.27 1.26 1.28 1.25 1.22 1.22 1.21 1.19 1.18 1.17 1.12 1.10 1.07 1.04 1.00 0.99 0.99 1.02 1.04 1.04 1.04
2.14 2.08 2.04 2.03 1.98 1.93 1.89 1.82 1.65 1.45 1.43 1.44 1.37 1.32 1.28 1.28 1.26 1.25 1.23 1.21 1.20 1.23 1.27 1.30 1.28 1.26 1.22 1.20 1.21 1.19 1.18 1.17 1.15 1.13 1.10 1.06 1.01 0.98 0.97 0.98 0.98 0.98
2.13 2.13 2.14 2.07 2.02 1.99 2.02 2.00 1.92 1.78 1.64 1.60 1.58 1.46 1.36 1.31 1.28 1.23 1.22 1.20 1.18 1.17 1.18 1.22 1.26 1.29 1.27 1.25 1.24 1.23 1.22 1.19 1.16 1.14 1.16 1.14 1.11 1.06 1.00 0.99 1.01 1.02
2.20 2.18 2.15 2.14 2.11 2.09 2.07 2.05 2.02 1.91 1.81 1.87 1.81 1.67 1.55 1.50 1.40 1.33 1.29 1.26 1.24 1.23 1.22 1.23 1.26 1.29 1.30 1.30 1.30 1.27 1.26 1.23 1.21 1.18 1.17 1.17 1.16 1.14 1.12 1.10 1.08 1.09
2.15 2.13 2.13 2.13 2.12 2.12 2.11 2.08 2.03 1.94 1.91 1.97 2.08 2.00 1.87 1.70 1.64 1.57 1.48 1.44 1.37 1.31 1.28 1.29 1.29 1.32 1.34 1.37 1.37 1.36 1.34 1.31 1.26 1.22 1.18 1.17 1.18 1.19 1.18 1.17 1.16 1.15
2.06 2.08 2.08 2.11 2.14 2.10 2.07 2.06 2.05 2.09 2.14 2.15 2.19 2.15 2.09 2.01 1.92 1.82 1.77 1.72 1.68 1.60 1.51 1.45 1.40 1.41 1.41 1.42 1.42 1.42 1.42 1.41 1.38 1.34 1.29 1.24 1.20 1.18 1.18 1.17 1.16 1.14
1.91 1.94 1.99 2.05 2.09 2.09 2.05 1.99 1.99 2.12 2.13 2.18 2.16 2.10 2.12 2.09 2.03 1.96 1.93 1.90 1.85 1.83 1.77 1.71 1.67 1.63 1.57 1.54 1.52 1.50 1.49 1.49 1.46 1.44 1.40 1.35 1.32 1.27 1.22 1.18 1.18 1.19
1.77 1.81 1.87 1.96 2.04 2.06 2.08 2.09 2.07 2.04 2.08 2.17 2.11 2.08 2.12 2.20 2.16 2.12 2.02 1.97 1.96 1.91 1.85 1.80 1.84 1.84 1.78 1.72 1.67 1.61 1.57 1.52 1.49 1.46 1.42 1.39 1.36 1.35 1.32 1.28 1.25 1.25
1.72 1.72 1.73 1.77 1.84 1.89 1.94 1.98 2.03 2.05 2.08 2.13 2.08 2.10 2.11 2.15 2.16 2.10 2.11 2.06 2.05 2.04 1.98 1.92 1.92 1.93 1.90 1.84 1.79 1.75 1.67 1.61 1.56 1.53 1.49 1.44 1.41 1.41 1.41 1.39 1.37 1.36
1.51 1.56 1.60 1.65 1.72 1.76 1.80 1.85 1.93 2.01 2.06 2.12 2.10 2.09 2.11 2.14 2.14 2.13 2.16 2.16 2.13 2.11 2.12 2.05 2.02 2.03 2.01 1.98 1.95 1.90 1.82 1.73 1.67 1.60 1.56 1.54 1.51 1.51 1.49 1.46 1.44 1.45
1.26 1.31 1.38 1.47 1.51 1.58 1.64 1.69 1.77 1.86 2.00 2.10 2.16 2.14 2.07 2.12 2.16 2.16 2.17 2.20 2.20 2.19 2.20 2.16 2.14 2.13 2.11 2.07 2.04 2.00 1.94 1.88 1.81 1.71 1.60 1.55 1.54 1.54 1.59 1.57 1.56 1.56
0.98 1.02 1.12 1.23 1.30 1.38 1.45 1.50 1.61 1.72 1.83 1.94 1.99 2.00 1.98 2.01 2.04 2.05 2.05 2.08 2.15 2.17 2.19 2.18 2.18 2.18 2.20 2.17 2.13 2.09 2.05 2.01 1.97 1.86 1.77 1.73 1.69 1.63 1.58 1.62 1.66 1.68
Wind_Speed
13 13 13 12 12 11 11 10 10 10 9 9 9 9 9 8 8 8 8 8 8 8 8 8 8 8 7 7 7 7 7 7 7 7 6 6 6 5 5 5 5 4
15 14 13 13 12 12 11 10 10 10 10 9 9 9 9 8 8 8 8 8 8 8 8 8 8 7 7 7 7 7 7 7 7 7 7 7 7 7 6 6 6 6
16 15 15 14 13 13 12 11 11 11 10 10 9 9 9 9 9 9 9 8 8 8 8 7 7 7 7 7 7 6 6 6 7 7 7 7 7 7 7 7 7 7
17 16 16 15 14 14 13 12 12 12 11 11 10 10 9 9 9 9 9 9 8 8 8 7 7 7 7 7 7 6 6 6 6 7 7 7 7 7 8 7 8 8
17 17 17 16 15 15 14 14 13 13 12 12 11 10 10 10 10 10 9 9 9 9 8 8 7 7 7 7 6 6 6 6 6 7 7 7 7 7 7 7 8 8
18 18 18 17 16 16 15 15 14 14 13 13 12 11 11 11 11 10 10 10 10 9 9 8 8 8 7 7 7 7 7 7 7 7 7 7 7 7 7 7 7 8
19 18 18 18 17 17 16 16 15 15 14 14 13 13 12 12 12 11 11 11 10 10 10 9 9 9 8 8 7 7 7 7 7 7 7 7 7 7 7 7 7 8
19 19 19 19 18 18 17 17 16 16 15 15 14 14 13 13 13 12 12 12 11 11 10 10 10 9 9 8 8 8 8 7 7 7 7 7 7 7 7 7 7 8
19 19 19 20 19 19 19 18 18 17 16 16 15 15 14 14 14 13 13 12 12 11 11 11 10 10 10 10 9 9 9 8 8 8 8 8 8 7 7 7 7 8
19 20 20 20 20 20 20 20 19 19 18 17 17 16 16 15 15 14 14 14 13 13 12 12 11 11 11 10 10 10 10 10 9 9 9 9 9 8 8 8 8 8
21 21 21 21 21 21 21 21 21 20 20 19 19 18 17 17 16 16 15 15 14 14 13 13 12 12 11 11 11 11 11 11 11 10 10 10 10 9 9 9 9 9
22 22 22 22 22 22 22 21 21 21 21 21 20 20 19 18 18 17 16 16 16 15 15 14 13 13 13 12 12 12 12 12 12 12 11 11 11 11 10 10 10 10
24 23 23 23 22 22 22 22 22 22 22 22 21 21 21 20 19 19 18 17 17 17 16 15 15 14 14 13 13 13 13 13 13 12 12 12 12 12 11 11 11 11
25 24 24 23 23 23 23 23 22 22 23 22 22 22 22 21 21 20 19 19 18 18 17 17 16 16 15 15 14 14 14 14 14 13 13 13 13 13 12 12 12 12
25 25 24 24 24 24 24 23 23 23 23 23 23 23 22 22 22 21 21 20 20 19 19 18 18 17 17 16 16 15 15 15 15 15 15 14 14 14 14 14 14 13
25 24 24 24 25 25 25 25 24 24 23 23 23 23 23 22 22 22 22 22 21 21 20 20 19 19 19 18 18 17 16 16 16 16 16 15 15 15 15 15 15 15
22 22 23 23 24 25 26 26 26 26 25 24 23 23 23 22 22 22 22 22 22 21 21 21 21 20 20 20 20 19 19 18 18 17 17 17 16 16 16 15 16 16
17 19 20 20 21 22 24 25 26 27 27 26 25 24 23 22 22 22 22 22 22 22 22 21 21 22 22 21 21 21 21 20 20 19 19 19 18 18 18 17 17 17
13 15 17 18 19 20 21 23 25 26 27 27 26 25 23 22 22 22 21 21 21 21 22 22 22 22 22 22 22 22 22 22 21 21 21 21 21 20 20 19 19 18
12 13 14 16 18 19 20 21 23 25 26 26 25 24 23 22 23 22 22 22 21 21 21 21 22 22 22 23 23 23 23 23 22 22 22 22 22 22 22 21 21 20
11 12 13 14 15 17 18 19 20 22 23 24 23 23 23 23 23 22 22 22 22 22 21 21 22 22 22 23 23 23 23 23 23 23 23 23 23 23 23 23 22 22
11 11 12 13 14 14 15 17 18 19 20 22 22 22 23 23 22 21 22 22 22 22 22 22 23 23 23 24 24 23 23 23 23 24 24 24 24 24 24 24 23 23
12 12 12 13 13 14 14 15 16 17 18 19 20 21 21 21 21 20 21 22 22 22 23 23 24 24 25 25 25 25 24 24 24 24 24 25 25 25 25 25 25 24
13 13 13 13 13 14 14 14 15 16 17 18 18 19 20 20 19 19 20 21 21 22 23 23 24 25 25 26 26 26 26 25 25 25 25 25 25 25 25 25 26 26
13 13 14 14 14 14 14 15 15 15 16 16 17 17 18 18 18 19 19 20 21 22 22 23 23 24 25 25 26 26 26 26 26 26 26 26 26 26 26 25 26 26
13 13 14 14 15 14 15 15 15 15 16 16 15 15 16 16 17 18 19 19 20 21 22 22 23 24 24 25 25 26 26 27 27 27 27 27 26 26 26 27 27 27
Wind_Direction
198 197 195 194 193 195 195 192 189 189 187 184 183 183 181 181 180 181 183 186 189 191 193 196 199 202 203 205 208 211 213 214 214 213 213 215 219 219 220 222 219 217
201 200 199 199 198 199 201 200 197 196 194 192 190 189 187 187 187 186 186 187 190 193 195 197 201 203 205 209 211 213 216 218 218 219 221 224 226 226 227 229 229 228
204 204 203 204 203 203 204 205 203 202 200 199 197 196 195 194 194 193 192 192 193 195 196 198 201 203 206 209 211 214 216 217 218 220 223 227 230 232 233 233 233 233
207 207 207 208 208 207 207 207 207 207 206 205 204 203 201 201 201 200 200 199 198 199 200 201 203 206 208 211 212 216 218 218 219 219 222 228 232 235 236 236 238 238
210 210 211 211 211 211 210 210 211 211 210 210 210 209 208 207 207 206 207 206 204 205 206 206 207 208 211 213 215 219 221 222 223 223 225 230 233 236 238 240 242 242
212 212 213 214 214 214 214 213 213 213 214 215 214 213 213 213 213 212 211 211 211 211 211 212 213 214 214 216 218 221 223 224 226 227 231 235 237 238 240 242 245 246
214 215 215 216 217 217 217 216 216 216 217 218 219 218 218 217 218 217 215 215 216 217 217 217 218 218 219 220 221 223 225 227 228 229 233 237 239 241 242 244 247 248
217 217 217 218 219 220 220 219 219 219 220 221 222 221 221 221 221 221 220 220 220 221 222 222 222 223 224 225 227 228 228 230 231 232 235 238 240 244 246 248 250 252
220 220 220 221 222 223 224 223 223 222 222 223 224 224 224 225 224 224 223 223 223 224 224 225 225 226 227 229 231 233 233 234 235 236 238 240 243 246 249 252 254 255
222 223 223 224 224 225 226 226 226 226 225 225 226 226 227 227 227 227 226 226 226 226 227 228 228 229 230 231 232 234 236 237 238 239 241 243 245 248 250 253 256 257
224 224 225 226 226 227 228 228 228 228 228 228 228 228 228 229 229 229 229 229 229 229 230 231 232 233 234 234 234 235 237 238 239 241 243 245 247 249 251 253 256 258
227 226 227 227 228 229 230 230 230 230 230 230 229 229 230 230 231 231 231 231 231 232 233 234 235 236 237 238 239 238 239 241 242 242 244 246 248 250 252 254 256 259
230 229 229 229 230 231 231 231 231 232 231 231 231 230 231 231 232 232 232 233 233 234 235 237 238 238 240 241 241 241 242 243 244 245 246 247 248 250 252 254 257 259
232 231 231 231 231 232 232 232 232 233 233 232 232 232 232 233 233 234 234 234 235 236 237 238 239 240 240 241 242 243 244 245 246 247 248 249 250 251 253 254 257 259
233 232 232 233 233 233 233 233 233 233 233 233 233 232 233 234 234 235 235 236 237 238 239 240 240 241 241 242 243 244 245 247 248 250 251 253 254 254 255 256 257 259
233 232 233 234 235 234 234 234 234 233 233 233 233 233 233 234 234 235 236 237 239 240 241 242 243 244 243 243 244 245 247 248 249 251 252 254 256 257 257 258 258 260
231 231 233 235 235 235 235 235 235 233 232 233 233 232 233 234 234 235 236 238 239 240 242 243 245 246 245 245 246 247 248 249 250 251 253 254 256 257 259 260 260 261
229 229 232 234 234 235 236 236 235 233 232 232 232 232 232 233 234 235 236 238 240 241 242 244 246 247 246 247 248 248 249 251 252 252 253 255 256 257 259 260 261 262
230 230 232 233 235 237 238 237 234 233 232 233 232 232 233 234 234 236 237 238 240 241 243 245 246 247 247 248 248 249 250 252 253 254 255 256 257 258 259 260 261 262
235 235 235 236 238 239 239 237 235 234 233 233 233 235 236 236 236 236 237 239 240 242 244 246 247 249 249 248 249 249 249 251 253 255 256 257 257 258 259 259 260 261
238 236 235 236 238 239 238 237 237 237 238 237 238 240 241 240 238 238 238 240 242 243 245 246 247 249 249 249 250 250 250 251 253 254 256 257 258 259 259 260 260 261
241 238 237 239 240 240 239 238 239 240 242 243 243 242 241 240 240 239 240 242 244 245 246 247 248 249 250 250 251 251 252 252 253 254 256 257 258 259 259 259 260 260
242 242 243 244 245 245 245 244 244 244 246 246 244 242 241 241 242 243 243 244 245 247 248 249 249 250 250 250 251 251 252 252 253 255 256 257 258 259 258 258 258 259
241 243 245 246 246 247 247 248 249 249 249 249 248 246 245 246 248 248 247 247 248 249 249 250 251 251 251 251 252 252 252 252 253 255 257 258 259 259 259 259 259 259
242 244 245 246 247 248 248 249 251 251 252 253 253 253 252 253 253 252 250 250 250 251 251 252 252 253 253 253 253 253 253 253 254 255 257 258 259 259 260 260 260 261
246 246 247 248 250 252 251 250 252 253 254 255 257 257 257 256 256 254 253 253 253 253 253 253 253 254 254 254 254 254 254 255 255 256 257 258 259 259 260 260 261 262